Regional Weather Roundup
Issued by NWS

Home | Current Version | Previous Version | Graphics & Text | Print | Product List | Glossary On
Versions: 1 2 3 4 5 6 7 8 9 10 11 12 13 14 15 16 17 18 19 20 21 22 23 24 25 26 27 28 29 30 31 32 33 34 35 36 37 38 39 40 41 42 43 44 45 46 47 48 49 50
670
ASUS43 KOAX 301810
RWRNE

WEATHER ROUNDUP FOR NEBRASKA
NATIONAL WEATHER SERVICE OMAHA NE
100 PM CDT SUN APR 30 2017

NOTES: SATELLITE DATA IS BEING USED TO AUGMENT CLOUD COVER ABOVE
       12000 FEET.
       "FAIR" INDICATES FEW OR NO CLOUDS BELOW 12,000 FEET WITH NO
       SIGNIFICANT WEATHER AND/OR OBSTRUCTIONS TO VISIBILITY.

  * THESE STATIONS DO NOT REPORT WEATHER SUCH AS RAIN...SNOW OR FOG.

NEZ001>004-019>022-054>056-301900-
NEBRASKA PANHANDLE

CITY           SKY/WX    TMP DP  RH WIND       PRES   REMARKS
SCOTTSBLUFF    CLOUDY    50  21  32 N17G26    29.95F
6HR MIN TEMP:  29; 6HR MAX TEMP:  51;

ALLIANCE       CLOUDY    49  20  31 N22G33    29.92S
6HR MIN TEMP:  30; 6HR MAX TEMP:  49;

CHADRON        CLOUDY    53  25  33 NE12G22   29.96F
6HR MIN TEMP:  25; 6HR MAX TEMP:  53;

KIMBALL        CLOUDY    49  22  35 N24G32    29.93F
SIDNEY         CLOUDY    48  21  34 N31G40    29.91F
6HR MIN TEMP:  32; 6HR MAX TEMP:  49;

$$

NEZ057>060-069>072-079>082-301900-
SOUTHWEST NEBRASKA

CITY           SKY/WX    TMP DP  RH WIND       PRES   REMARKS
NORTH PLATTE   CLOUDY    43  20  39 N22G33    29.80F
6HR MIN TEMP:  40; 6HR MAX TEMP:  43;

IMPERIAL       CLOUDY    43  23  45 N29G37    29.83F
6HR MIN TEMP:  37; 6HR MAX TEMP:  43;

LEXINGTON      LGT SNOW  33  32  95 N13       29.73S WCI  24
MCCOOK         FOG       33  33 100 N28       29.77F VSB<1/4 WCI  20
6HR MIN TEMP:  33; 6HR MAX TEMP:  37; 6HR PCP:  0.14;

OGALLALA       CLOUDY    50  23  34 N31G37    29.84F
$$

NEZ005>010-023>029-035>040-094-301900-
NORTH CENTRAL NEBRASKA

CITY           SKY/WX    TMP DP  RH WIND       PRES   REMARKS
VALENTINE      PTSUNNY   49  18  29 N17G39    29.88F
6HR MIN TEMP:  39; 6HR MAX TEMP:  49;

AINSWORTH      CLOUDY    43  23  44 NE23G33   29.83F
BROKEN BOW     CLOUDY    34  33  96 N31G44    29.71F FOG     WCI  20
6HR MIN TEMP:  34; 6HR MAX TEMP:  41; 6HR PCP:  0.04;

O`NEILL        LGT SNOW  34  32  93 N21       29.80F VSB 1   WCI  22
ORD            SNOW      33  31  92 N28G40    29.68F VSB 1/2 WCI  20
6HR MIN TEMP:  33; 6HR MAX TEMP:  39; 6HR PCP:  0.44;

THEDFORD       CLOUDY    44  20  37 N24G39    29.81F
$$

NEZ041-046>049-061>064-073>077-083>087-301900-
SOUTH CENTRAL NEBRASKA

CITY           SKY/WX    TMP DP  RH WIND       PRES   REMARKS
GRAND ISLAND   FLURRIES  36  36 100 N21       29.67F WCI  25
6HR MIN TEMP:  35; 6HR MAX TEMP:  36; 6HR PCP:  0.90;

AURORA         LGT RAIN  37  37 100 NE26G32   29.65F WCI  25
HASTINGS       LGT SNOW  35  33  92 N18       29.64F FOG     WCI  24
6HR MIN TEMP:  34; 6HR MAX TEMP:  37; 6HR PCP:  0.77;

HEBRON         CLOUDY    39  38  97 N20G25    29.56S WCI  30
HOLDREGE       SNOW      33  32  96 N21       29.67F VSB 1/2 WCI  21
KEARNEY *      CLOUDY    34  30  86 N18G25    29.68F VSB 1   WCI  23
YORK           LGT RAIN  37  37 100 NE21G28   29.65S WCI  27
$$

NEZ011>018-030>034-042>045-301900-
NORTHEAST NEBRASKA

CITY           SKY/WX    TMP DP  RH WIND       PRES   REMARKS
NORFOLK        HVY RAIN  37  35  92 N22G32    29.68F FOG     WCI  26
6HR MIN TEMP:  36; 6HR MAX TEMP:  38; 6HR PCP:  0.49;

ALBION         LGT SNOW  37  34  89 N25G36    29.68F WCI  26
BLAIR          CLOUDY    40  38  93 NE29G39   29.52F WCI  29
FREMONT        TSTM      39  38  97 NE12G25   29.60R WCI  32
TEKAMAH        LGT RAIN  40  37  89 NE30G39   29.61F WCI  28
6HR MIN TEMP:  39; 6HR MAX TEMP:  40; 6HR PCP:  0.21;

WAYNE          LGT RAIN  39  39  98 NE28G39   29.68F WCI  28
$$

NEZ050>053-065>068-078-088>093-301900-
SOUTHEAST NEBRASKA

CITY           SKY/WX    TMP DP  RH WIND       PRES   REMARKS
LINCOLN        LGT RAIN  41  39  93 NE13      29.61S FOG
6HR MIN TEMP:  38; 6HR MAX TEMP:  41; 6HR PCP:  0.78;

OMAHA EPPLEY   LGT RAIN  43  38  82 NE25G36   29.53F
6HR MIN TEMP:  40; 6HR MAX TEMP:  43; 6HR PCP:  0.18;

BEATRICE       LGT RAIN  43  43  97 N14G20    29.53F
FALLS CITY     LGT RAIN  48  47  96 E10       29.51F FOG
6HR MIN TEMP:  41; 6HR MAX TEMP:  48; 6HR PCP:  0.39;

NEBRASKA CITY  RAIN      44  44 100 SE6       29.56R
PLATTSMOUTH    LGT RAIN  43  40  89 NE15G29   29.51S
$$

NEZ044-045-051>053-067-301900-
OMAHA AREA

CITY           SKY/WX    TMP DP  RH WIND       PRES   REMARKS
OMAHA EPPLEY   LGT RAIN  43  38  82 NE25G36   29.53F
6HR MIN TEMP:  40; 6HR MAX TEMP:  43; 6HR PCP:  0.18;

BLAIR          CLOUDY    40  38  93 NE29G39   29.52F WCI  29
FREMONT        TSTM      39  38  97 NE12G25   29.60R WCI  32
MILLARD        HVY RAIN  43  41  93 NE10G28   29.51F
OFFUTT AFB     HVY RAIN  43  41  93 NE18G29   29.49F FOG
PLATTSMOUTH    LGT RAIN  43  40  89 NE15G29   29.51S
WAHOO          LGT SNOW  39  38  94 NE20G29   29.57S VSB 1   WCI  30
$$




USA.gov is the U.S. government's official web portal to all federal, state and local government web resources and services.